Time,TemperatureF,DewpointF,PressureIn,WindDirection,WindDirectionDegrees,WindSpeedMPH,WindSpeedGustMPH,Humidity,HourlyPrecipIn,Conditions,Clouds,dailyrainin,SolarRadiationWatts/m^2,SoftwareType,DateUTC
2013-02-26 00:01:00,49.0,18.0,-100.00,WNW,303,5.0,10.0,29,0.00,,,0.00,0.000000,,2013-02-26 08:01:00,
2013-02-26 00:21:00,49.0,17.0,-100.00,WNW,295,7.0,11.0,28,0.00,,,0.00,0.000000,,2013-02-26 08:21:00,
2013-02-26 00:32:00,49.0,17.0,-100.00,WNW,295,7.0,11.0,28,0.00,,,0.00,0.000000,,2013-02-26 08:32:00,
2013-02-26 00:42:00,49.0,17.0,-100.00,WNW,295,7.0,11.0,28,0.00,,,0.00,0.000000,,2013-02-26 08:42:00,
2013-02-26 00:52:00,49.0,17.0,-100.00,WNW,295,7.0,11.0,28,0.00,,,0.00,0.000000,,2013-02-26 08:52:00,
2013-02-26 01:01:00,49.0,17.0,-100.00,WNW,295,7.0,11.0,28,0.00,,,0.00,0.000000,,2013-02-26 09:01:00,
2013-02-26 01:32:00,49.0,25.0,-100.00,NW,310,6.0,11.0,39,0.00,,,0.00,0.000000,,2013-02-26 09:32:00,
2013-02-26 01:43:00,49.0,25.0,-100.00,NW,310,6.0,11.0,39,0.00,,,0.00,0.000000,,2013-02-26 09:43:00,
2013-02-26 01:52:00,49.0,25.0,-100.00,NW,310,6.0,11.0,39,0.00,,,0.00,0.000000,,2013-02-26 09:52:00,
2013-02-26 02:01:00,49.0,25.0,-100.00,NW,310,6.0,11.0,39,0.00,,,0.00,0.000000,,2013-02-26 10:01:00,
2013-02-26 02:21:00,50.0,32.0,-100.00,NW,305,8.0,11.0,50,0.00,,,0.00,0.000000,,2013-02-26 10:21:00,
2013-02-26 02:32:00,50.0,32.0,-100.00,NW,305,8.0,11.0,50,0.00,,,0.00,0.000000,,2013-02-26 10:32:00,
2013-02-26 02:42:00,50.0,32.0,-100.00,NW,305,8.0,11.0,50,0.00,,,0.00,0.000000,,2013-02-26 10:42:00,
2013-02-26 02:52:00,50.0,32.0,-100.00,NW,305,8.0,11.0,50,0.00,,,0.00,0.000000,,2013-02-26 10:52:00,
2013-02-26 03:01:00,50.0,32.0,-100.00,NW,305,8.0,11.0,50,0.00,,,0.00,0.000000,,2013-02-26 11:01:00,
2013-02-26 03:22:00,49.0,28.0,-100.00,WNW,289,9.0,16.0,44,0.00,,,0.00,0.000000,,2013-02-26 11:22:00,
2013-02-26 03:32:00,49.0,28.0,-100.00,WNW,289,9.0,16.0,44,0.00,,,0.00,0.000000,,2013-02-26 11:32:00,
2013-02-26 03:42:00,49.0,28.0,-100.00,WNW,289,9.0,16.0,44,0.00,,,0.00,0.000000,,2013-02-26 11:42:00,
2013-02-26 03:52:00,49.0,28.0,-100.00,WNW,289,9.0,16.0,44,0.00,,,0.00,0.000000,,2013-02-26 11:52:00,
2013-02-26 04:01:00,49.0,28.0,-100.00,WNW,289,9.0,16.0,44,0.00,,,0.00,0.000000,,2013-02-26 12:01:00,
2013-02-26 04:22:00,44.0,22.0,-100.00,NW,306,10.0,21.0,42,0.00,,,0.00,0.000000,,2013-02-26 12:22:00,
2013-02-26 04:32:00,44.0,22.0,-100.00,NW,306,10.0,21.0,42,0.00,,,0.00,0.000000,,2013-02-26 12:32:00,
2013-02-26 04:42:00,44.0,22.0,-100.00,NW,306,10.0,21.0,42,0.00,,,0.00,0.000000,,2013-02-26 12:42:00,
2013-02-26 04:53:00,44.0,22.0,-100.00,NW,306,10.0,21.0,42,0.00,,,0.00,0.000000,,2013-02-26 12:53:00,
2013-02-26 05:01:00,44.0,22.0,-100.00,NW,306,10.0,21.0,42,0.00,,,0.00,0.000000,,2013-02-26 13:01:00,
2013-02-26 05:22:00,44.0,20.0,-100.00,WNW,296,13.0,24.0,38,0.00,,,0.00,0.000000,,2013-02-26 13:22:00,
2013-02-26 05:32:00,44.0,20.0,-100.00,WNW,296,13.0,24.0,38,0.00,,,0.00,0.000000,,2013-02-26 13:32:00,
2013-02-26 05:42:00,44.0,20.0,-100.00,WNW,296,13.0,24.0,38,0.00,,,0.00,0.000000,,2013-02-26 13:42:00,
2013-02-26 05:52:00,44.0,20.0,-100.00,WNW,296,13.0,24.0,38,0.00,,,0.00,0.000000,,2013-02-26 13:52:00,
2013-02-26 06:01:00,44.0,20.0,-100.00,WNW,296,13.0,24.0,38,0.00,,,0.00,0.000000,,2013-02-26 14:01:00,
2013-02-26 06:32:00,43.0,17.0,-100.00,WNW,295,16.0,29.0,35,0.00,,,0.00,0.000000,,2013-02-26 14:32:00,
2013-02-26 06:42:00,43.0,17.0,-100.00,WNW,295,16.0,29.0,35,0.00,,,0.00,0.000000,,2013-02-26 14:42:00,
2013-02-26 06:52:00,43.0,17.0,-100.00,WNW,295,16.0,29.0,35,0.00,,,0.00,0.000000,,2013-02-26 14:52:00,
2013-02-26 07:01:00,43.0,17.0,-100.00,WNW,295,16.0,29.0,35,0.00,,,0.00,0.000000,,2013-02-26 15:01:00,
2013-02-26 07:32:00,43.0,15.0,-100.00,WNW,297,17.0,27.0,32,0.00,,,0.00,4.000000,,2013-02-26 15:32:00,
2013-02-26 07:42:00,43.0,15.0,-100.00,WNW,297,17.0,27.0,32,0.00,,,0.00,4.000000,,2013-02-26 15:42:00,
2013-02-26 07:52:00,43.0,15.0,-100.00,WNW,297,17.0,27.0,32,0.00,,,0.00,4.000000,,2013-02-26 15:52:00,
2013-02-26 08:01:00,43.0,15.0,-100.00,WNW,297,17.0,27.0,32,0.00,,,0.00,4.000000,,2013-02-26 16:01:00,
2013-02-26 08:32:00,46.0,17.0,-100.00,WNW,301,16.0,32.0,31,0.00,,,0.00,121.000000,,2013-02-26 16:32:00,
2013-02-26 08:42:00,46.0,17.0,-100.00,WNW,301,16.0,32.0,31,0.00,,,0.00,121.000000,,2013-02-26 16:42:00,
2013-02-26 08:52:00,46.0,17.0,-100.00,WNW,301,16.0,32.0,31,0.00,,,0.00,121.000000,,2013-02-26 16:52:00,
2013-02-26 09:01:00,46.0,17.0,-100.00,WNW,301,16.0,32.0,31,0.00,,,0.00,121.000000,,2013-02-26 17:01:00,
2013-02-26 09:32:00,48.0,17.0,-100.00,WNW,300,14.0,29.0,29,0.00,,,0.00,321.000000,,2013-02-26 17:32:00,
2013-02-26 09:42:00,48.0,17.0,-100.00,WNW,300,14.0,29.0,29,0.00,,,0.00,321.000000,,2013-02-26 17:42:00,
2013-02-26 09:52:00,48.0,17.0,-100.00,WNW,300,14.0,29.0,29,0.00,,,0.00,321.000000,,2013-02-26 17:52:00,
2013-02-26 10:01:00,48.0,17.0,-100.00,WNW,300,14.0,29.0,29,0.00,,,0.00,321.000000,,2013-02-26 18:01:00,
2013-02-26 10:32:00,51.0,16.0,-100.00,WNW,301,13.0,24.0,25,0.00,,,0.00,504.000000,,2013-02-26 18:32:00,
2013-02-26 10:42:00,51.0,16.0,-100.00,WNW,301,13.0,24.0,25,0.00,,,0.00,504.000000,,2013-02-26 18:42:00,
2013-02-26 10:52:00,51.0,16.0,-100.00,WNW,301,13.0,24.0,25,0.00,,,0.00,504.000000,,2013-02-26 18:52:00,
2013-02-26 11:01:00,51.0,16.0,-100.00,WNW,301,13.0,24.0,25,0.00,,,0.00,504.000000,,2013-02-26 19:01:00,
2013-02-26 11:32:00,53.0,17.0,-100.00,NW,304,9.0,25.0,24,0.00,,,0.00,647.000000,,2013-02-26 19:32:00,
2013-02-26 11:42:00,53.0,17.0,-100.00,NW,304,9.0,25.0,24,0.00,,,0.00,647.000000,,2013-02-26 19:42:00,
2013-02-26 11:52:00,53.0,17.0,-100.00,NW,304,9.0,25.0,24,0.00,,,0.00,647.000000,,2013-02-26 19:52:00,
2013-02-26 12:01:00,53.0,17.0,-100.00,NW,304,9.0,25.0,24,0.00,,,0.00,647.000000,,2013-02-26 20:01:00,
2013-02-26 13:31:00,56.0,19.0,-100.00,ENE,66,15.0,24.0,23,-99.99,,,0.00,761.000000,,2013-02-26 21:31:00,
2013-02-26 13:41:00,56.0,19.0,-100.00,ENE,66,15.0,24.0,23,-99.99,,,0.00,761.000000,,2013-02-26 21:41:00,
2013-02-26 13:51:00,56.0,19.0,-100.00,ENE,66,15.0,24.0,23,-99.99,,,0.00,761.000000,,2013-02-26 21:51:00,
2013-02-26 14:01:00,56.0,19.0,-100.00,ENE,66,15.0,24.0,23,-99.99,,,0.00,761.000000,,2013-02-26 22:01:00,
2013-02-26 14:32:00,58.0,21.0,-100.00,ENE,70,11.0,21.0,24,0.00,,,0.00,719.000000,,2013-02-26 22:32:00,
2013-02-26 14:42:00,58.0,21.0,-100.00,ENE,70,11.0,21.0,24,0.00,,,0.00,719.000000,,2013-02-26 22:42:00,
2013-02-26 14:52:00,58.0,21.0,-100.00,ENE,70,11.0,21.0,24,0.00,,,0.00,719.000000,,2013-02-26 22:52:00,
2013-02-26 15:01:00,58.0,21.0,-100.00,ENE,70,11.0,21.0,24,0.00,,,0.00,719.000000,,2013-02-26 23:01:00,
2013-02-26 15:32:00,59.0,20.0,-100.00,ENE,68,9.0,20.0,22,0.00,,,0.00,617.000000,,2013-02-26 23:32:00,
2013-02-26 15:42:00,59.0,20.0,-100.00,ENE,68,9.0,20.0,22,0.00,,,0.00,617.000000,,2013-02-26 23:42:00,
2013-02-26 15:52:00,59.0,20.0,-100.00,ENE,68,9.0,20.0,22,0.00,,,0.00,617.000000,,2013-02-26 23:52:00,
2013-02-26 16:01:00,59.0,20.0,-100.00,ENE,68,9.0,20.0,22,0.00,,,0.00,617.000000,,2013-02-27 00:01:00,
2013-02-26 16:22:00,59.0,20.0,-100.00,ENE,66,9.0,18.0,22,0.00,,,0.00,445.000000,,2013-02-27 00:22:00,
2013-02-26 16:32:00,59.0,20.0,-100.00,ENE,66,9.0,18.0,22,0.00,,,0.00,445.000000,,2013-02-27 00:32:00,
2013-02-26 16:42:00,59.0,20.0,-100.00,ENE,66,9.0,18.0,22,0.00,,,0.00,445.000000,,2013-02-27 00:42:00,
2013-02-26 16:52:00,59.0,20.0,-100.00,ENE,66,9.0,18.0,22,0.00,,,0.00,445.000000,,2013-02-27 00:52:00,
2013-02-26 17:01:00,59.0,20.0,-100.00,ENE,66,9.0,18.0,22,0.00,,,0.00,445.000000,,2013-02-27 01:01:00,
2013-02-26 17:22:00,57.0,20.0,-100.00,WNW,295,7.0,14.0,23,0.00,,,0.00,237.000000,,2013-02-27 01:22:00,
2013-02-26 17:32:00,57.0,20.0,-100.00,WNW,295,7.0,14.0,23,0.00,,,0.00,237.000000,,2013-02-27 01:32:00,
2013-02-26 17:42:00,57.0,20.0,-100.00,WNW,295,7.0,14.0,23,0.00,,,0.00,237.000000,,2013-02-27 01:42:00,
2013-02-26 17:52:00,57.0,20.0,-100.00,WNW,295,7.0,14.0,23,0.00,,,0.00,237.000000,,2013-02-27 01:52:00,
2013-02-26 18:01:00,57.0,20.0,-100.00,WNW,295,7.0,14.0,23,0.00,,,0.00,237.000000,,2013-02-27 02:01:00,
2013-02-26 18:24:00,56.0,18.0,-100.00,WNW,293,11.0,15.0,22,0.00,,,0.00,44.000000,,2013-02-27 02:24:00,
2013-02-26 18:32:00,56.0,18.0,-100.00,WNW,293,11.0,15.0,22,0.00,,,0.00,44.000000,,2013-02-27 02:32:00,
2013-02-26 18:42:00,56.0,18.0,-100.00,WNW,293,11.0,15.0,22,0.00,,,0.00,44.000000,,2013-02-27 02:42:00,
2013-02-26 18:52:00,56.0,18.0,-100.00,WNW,293,11.0,15.0,22,0.00,,,0.00,44.000000,,2013-02-27 02:52:00,
2013-02-26 19:01:00,56.0,18.0,-100.00,WNW,293,11.0,15.0,22,0.00,,,0.00,44.000000,,2013-02-27 03:01:00,
2013-02-26 19:32:00,56.0,18.0,-100.00,NW,313,10.0,18.0,22,0.00,,,0.00,1.000000,,2013-02-27 03:32:00,
2013-02-26 19:42:00,56.0,18.0,-100.00,NW,313,10.0,18.0,22,0.00,,,0.00,1.000000,,2013-02-27 03:42:00,
2013-02-26 19:52:00,56.0,18.0,-100.00,NW,313,10.0,18.0,22,0.00,,,0.00,1.000000,,2013-02-27 03:52:00,
2013-02-26 20:01:00,56.0,18.0,-100.00,NW,313,10.0,18.0,22,0.00,,,0.00,1.000000,,2013-02-27 04:01:00,
2013-02-26 20:32:00,56.0,16.0,-100.00,NW,316,9.0,14.0,20,0.00,,,0.00,0.000000,,2013-02-27 04:32:00,
2013-02-26 20:42:00,56.0,16.0,-100.00,NW,316,9.0,14.0,20,0.00,,,0.00,0.000000,,2013-02-27 04:42:00,
2013-02-26 20:52:00,56.0,16.0,-100.00,NW,316,9.0,14.0,20,0.00,,,0.00,0.000000,,2013-02-27 04:52:00,
2013-02-26 21:01:00,56.0,16.0,-100.00,NW,316,9.0,14.0,20,0.00,,,0.00,0.000000,,2013-02-27 05:01:00,
2013-02-26 21:02:00,56.0,13.0,-100.00,NW,313,10.0,14.0,18,0.00,,,0.00,0.000000,,2013-02-27 05:02:00,
2013-02-26 21:32:00,56.0,13.0,-100.00,NW,313,10.0,14.0,18,0.00,,,0.00,0.000000,,2013-02-27 05:32:00,
2013-02-26 21:42:00,56.0,13.0,-100.00,NW,313,10.0,14.0,18,0.00,,,0.00,0.000000,,2013-02-27 05:42:00,
2013-02-26 21:52:00,56.0,13.0,-100.00,NW,313,10.0,14.0,18,0.00,,,0.00,0.000000,,2013-02-27 05:52:00,
2013-02-26 22:22:00,56.0,12.0,-100.00,NW,311,9.0,14.0,17,0.00,,,0.00,0.000000,,2013-02-27 06:22:00,
2013-02-26 22:33:00,56.0,12.0,-100.00,NW,311,9.0,14.0,17,0.00,,,0.00,0.000000,,2013-02-27 06:33:00,
2013-02-26 22:42:00,56.0,12.0,-100.00,NW,311,9.0,14.0,17,0.00,,,0.00,0.000000,,2013-02-27 06:42:00,
2013-02-26 22:52:00,56.0,12.0,-100.00,NW,311,9.0,14.0,17,0.00,,,0.00,0.000000,,2013-02-27 06:52:00,
2013-02-26 23:01:00,56.0,12.0,-100.00,NW,311,9.0,14.0,17,0.00,,,0.00,0.000000,,2013-02-27 07:01:00,
2013-02-26 23:22:00,56.0,9.0,-100.00,NW,313,9.0,14.0,15,0.00,,,0.00,0.000000,,2013-02-27 07:22:00,
2013-02-26 23:32:00,56.0,9.0,-100.00,NW,313,9.0,14.0,15,0.00,,,0.00,0.000000,,2013-02-27 07:32:00,
2013-02-26 23:42:00,56.0,9.0,-100.00,NW,313,9.0,14.0,15,0.00,,,0.00,0.000000,,2013-02-27 07:42:00,
2013-02-26 23:52:00,56.0,9.0,-100.00,NW,313,9.0,14.0,15,0.00,,,0.00,0.000000,,2013-02-27 07:52:00,